Meteo pe oră la Bolshoe Koptevo

Astăzi, 19 Mai, Miercuri

Timp Temperatura Precipitaţii Vânt Presiune Umiditate
00:00 +18°C° 0 mm 4 m/s 736 mmHg 76%
01:00 +17°C° 0 mm 3 m/s 736 mmHg 83%
02:00 +16°C° 0 mm 3 m/s 736 mmHg 91%
03:00 +16°C° 0.1 mm 3 m/s 736 mmHg 91%
04:00 +16°C° 0.1 mm 3 m/s 735 mmHg 91%
05:00 +16°C° 0.1 mm 3 m/s 735 mmHg 91%
06:00 +17°C° 0.3 mm 3 m/s 736 mmHg 90%
07:00 +17°C° 0.3 mm 4 m/s 736 mmHg 90%
08:00 +17°C° 0.3 mm 4 m/s 736 mmHg 89%
09:00 +19°C° 0.1 mm 5 m/s 737 mmHg 79%
10:00 +20°C° 0.1 mm 5 m/s 737 mmHg 69%
11:00 +22°C° 0.1 mm 5 m/s 737 mmHg 60%
12:00 +22°C° 0.4 mm 5 m/s 737 mmHg 60%
13:00 +22°C° 0.4 mm 5 m/s 737 mmHg 61%
14:00 +22°C° 0.4 mm 5 m/s 737 mmHg 61%
15:00 +22°C° 0.1 mm 5 m/s 737 mmHg 63%
16:00 +22°C° 0.1 mm 4 m/s 737 mmHg 64%
17:00 +22°C° 0.1 mm 3 m/s 737 mmHg 65%
18:00 +20°C° 0.1 mm 3 m/s 737 mmHg 73%
19:00 +18°C° 0.1 mm 2 m/s 737 mmHg 81%
20:00 +16°C° 0.1 mm 2 m/s 737 mmHg 89%
21:00 +16°C° 0 mm 2 m/s 737 mmHg 90%
22:00 +15°C° 0 mm 2 m/s 737 mmHg 92%
23:00 +15°C° 0 mm 1 m/s 737 mmHg 93%

Mâine, 20 Mai, Joi

Timp Temperatura Precipitaţii Vânt Presiune Umiditate
00:00 +14°C° 0.1 mm 1 m/s 736 mmHg 94%
01:00 +14°C° 0.1 mm 1 m/s 736 mmHg 95%
02:00 +14°C° 0.1 mm 1 m/s 736 mmHg 96%
03:00 +14°C° 0.1 mm 2 m/s 736 mmHg 96%
04:00 +15°C° 0.1 mm 2 m/s 735 mmHg 96%
05:00 +15°C° 0.1 mm 2 m/s 735 mmHg 96%
06:00 +14°C° 0.2 mm 3 m/s 735 mmHg 94%
07:00 +16°C° 0.2 mm 3 m/s 735 mmHg 92%
08:00 +15°C° 0.2 mm 4 m/s 735 mmHg 91%
09:00 +17°C° 0.1 mm 5 m/s 735 mmHg 80%
10:00 +19°C° 0.1 mm 5 m/s 735 mmHg 69%
11:00 +20°C° 0.1 mm 6 m/s 735 mmHg 57%
12:00 +19°C° 0.2 mm 6 m/s 735 mmHg 61%
13:00 +19°C° 0.2 mm 6 m/s 734 mmHg 65%
14:00 +17°C° 0.2 mm 5 m/s 734 mmHg 69%
15:00 +16°C° 0.9 mm 5 m/s 734 mmHg 76%
16:00 +15°C° 0.9 mm 4 m/s 734 mmHg 82%
17:00 +13°C° 0.9 mm 3 m/s 734 mmHg 89%
18:00 +13°C° 0.2 mm 3 m/s 734 mmHg 91%
19:00 +14°C° 0.2 mm 2 m/s 734 mmHg 94%
20:00 +13°C° 0.2 mm 2 m/s 735 mmHg 96%
21:00 +13°C° 0.1 mm 2 m/s 735 mmHg 96%
22:00 +11°C° 0.1 mm 3 m/s 736 mmHg 96%
23:00 +11°C° 0.1 mm 3 m/s 736 mmHg 96%

Poimâine, 21 Mai, Vineri

Timp Temperatura Precipitaţii Vânt Presiune Umiditate
00:00 +10°C° 0 mm 4 m/s 737 mmHg 95%
01:00 +10°C° 0 mm 4 m/s 738 mmHg 95%
02:00 +10°C° 0 mm 4 m/s 738 mmHg 94%
03:00 +8°C° 0 mm 4 m/s 739 mmHg 93%
04:00 +8°C° 0 mm 4 m/s 739 mmHg 92%
05:00 +8°C° 0 mm 4 m/s 740 mmHg 91%
06:00 +10°C° 0 mm 4 m/s 740 mmHg 84%
07:00 +11°C° 0 mm 3 m/s 741 mmHg 78%
08:00 +12°C° 0 mm 3 m/s 742 mmHg 71%
09:00 +14°C° 0 mm 3 m/s 742 mmHg 64%
10:00 +16°C° 0 mm 3 m/s 742 mmHg 57%
11:00 +18°C° 0 mm 3 m/s 742 mmHg 50%
12:00 +18°C° 0 mm 3 m/s 742 mmHg 46%
13:00 +19°C° 0 mm 4 m/s 742 mmHg 43%
14:00 +19°C° 0 mm 4 m/s 742 mmHg 39%
15:00 +19°C° 0 mm 3 m/s 742 mmHg 43%
16:00 +19°C° 0 mm 3 m/s 743 mmHg 46%
17:00 +18°C° 0 mm 2 m/s 743 mmHg 50%
18:00 +16°C° 0 mm 2 m/s 743 mmHg 57%
19:00 +14°C° 0 mm 2 m/s 743 mmHg 65%
20:00 +12°C° 0 mm 2 m/s 744 mmHg 73%
21:00 +10°C° 0 mm 2 m/s 744 mmHg 73%
22:00 +9°C° 0 mm 2 m/s 744 mmHg 74%
23:00 +9°C° 0 mm 1 m/s 745 mmHg 74%

22 Mai, Sâmbătă

Timp Temperatura Precipitaţii Vânt Presiune Umiditate
00:00 +9°C° 0 mm 1 m/s 745 mmHg 76%
01:00 +8°C° 0 mm 1 m/s 745 mmHg 78%
02:00 +8°C° 0 mm 1 m/s 745 mmHg 80%
03:00 +8°C° 0 mm 1 m/s 746 mmHg 80%
04:00 +9°C° 0 mm 1 m/s 746 mmHg 79%
05:00 +9°C° 0 mm 1 m/s 746 mmHg 78%
06:00 +11°C° 0 mm 1 m/s 746 mmHg 70%
07:00 +13°C° 0 mm 1 m/s 746 mmHg 62%
08:00 +15°C° 0 mm 1 m/s 746 mmHg 54%
09:00 +16°C° 0 mm 2 m/s 746 mmHg 50%
10:00 +17°C° 0 mm 2 m/s 746 mmHg 45%
11:00 +19°C° 0 mm 3 m/s 746 mmHg 41%
12:00 +19°C° 0 mm 3 m/s 746 mmHg 40%
13:00 +20°C° 0 mm 3 m/s 746 mmHg 40%
14:00 +20°C° 0 mm 3 m/s 746 mmHg 39%
15:00 +20°C° 0 mm 2 m/s 745 mmHg 44%
16:00 +20°C° 0 mm 2 m/s 745 mmHg 48%
17:00 +20°C° 0 mm 1 m/s 745 mmHg 53%
18:00 +18°C° 0 mm 2 m/s 745 mmHg 60%
19:00 +16°C° 0 mm 2 m/s 745 mmHg 67%
20:00 +14°C° 0 mm 2 m/s 745 mmHg 74%
21:00 +13°C° 0 mm 2 m/s 745 mmHg 79%
22:00 +12°C° 0 mm 2 m/s 745 mmHg 84%
23:00 +10°C° 0 mm 2 m/s 745 mmHg 89%

23 Mai, Duminică

Timp Temperatura Precipitaţii Vânt Presiune Umiditate
00:00 +10°C° 0 mm 2 m/s 745 mmHg 91%
01:00 +10°C° 0 mm 2 m/s 745 mmHg 93%
02:00 +9°C° 0 mm 2 m/s 744 mmHg 96%
03:00 +10°C° 0 mm 2 m/s 744 mmHg 94%
04:00 +10°C° 0 mm 2 m/s 744 mmHg 92%
05:00 +10°C° 0 mm 2 m/s 743 mmHg 90%
06:00 +12°C° 0 mm 3 m/s 743 mmHg 83%
07:00 +14°C° 0 mm 3 m/s 742 mmHg 77%
08:00 +17°C° 0 mm 4 m/s 742 mmHg 70%
09:00 +17°C° 0 mm 4 m/s 741 mmHg 71%
10:00 +18°C° 0 mm 4 m/s 740 mmHg 71%
11:00 +19°C° 0 mm 4 m/s 740 mmHg 72%
12:00 +18°C° 0 mm 4 m/s 739 mmHg 76%
13:00 +17°C° 0 mm 4 m/s 739 mmHg 81%
14:00 +17°C° 0 mm 3 m/s 739 mmHg 86%
15:00 +17°C° 0 mm 3 m/s 738 mmHg 85%
16:00 +17°C° 0 mm 3 m/s 738 mmHg 84%
17:00 +18°C° 0 mm 4 m/s 738 mmHg 83%
18:00 +17°C° 0 mm 4 m/s 737 mmHg 83%
19:00 +17°C° 0 mm 4 m/s 737 mmHg 84%
20:00 +15°C° 0 mm 4 m/s 737 mmHg 85%
21:00 +14°C° 0 mm 4 m/s 737 mmHg 87%
22:00 +14°C° 0 mm 4 m/s 738 mmHg 88%
23:00 +13°C° 0 mm 4 m/s 738 mmHg 89%

24 Mai, Luni

Timp Temperatura Precipitaţii Vânt Presiune Umiditate
00:00 +12°C° 0 mm 3 m/s 738 mmHg 92%
01:00 +11°C° 0 mm 3 m/s 739 mmHg 94%
02:00 +10°C° 0 mm 2 m/s 739 mmHg 97%
03:00 +10°C° 0 mm 2 m/s 740 mmHg 95%
04:00 +10°C° 0 mm 2 m/s 740 mmHg 94%
05:00 +11°C° 0 mm 1 m/s 740 mmHg 92%
06:00 +13°C° 0 mm 2 m/s 740 mmHg 86%
07:00 +14°C° 0 mm 2 m/s 740 mmHg 80%
08:00 +15°C° 0 mm 2 m/s 740 mmHg 74%
09:00 +15°C° 0.3 mm 2 m/s 741 mmHg 72%
10:00 +16°C° 0.3 mm 2 m/s 741 mmHg 70%
11:00 +16°C° 0.3 mm 3 m/s 741 mmHg 68%
12:00 +16°C° 0.2 mm 3 m/s 741 mmHg 64%
13:00 +17°C° 0.2 mm 3 m/s 741 mmHg 61%
14:00 +17°C° 0.2 mm 3 m/s 742 mmHg 57%
15:00 +17°C° 0 mm 2 m/s 741 mmHg 54%
16:00 +18°C° 0 mm 2 m/s 741 mmHg 50%
17:00 +19°C° 0 mm 1 m/s 741 mmHg 47%
18:00 +16°C° 0 mm 1 m/s 742 mmHg 54%
19:00 +15°C° 0 mm 1 m/s 742 mmHg 60%
20:00 +13°C° 0 mm 2 m/s 742 mmHg 67%
21:00 +13°C° 0 mm 2 m/s 742 mmHg 71%
22:00 +11°C° 0 mm 3 m/s 742 mmHg 74%
23:00 +11°C° 0 mm 4 m/s 743 mmHg 78%
Arată mai mult

Formular de consimțământ

Meteoprog și furnizorii noștri de servicii pot stoca și accesa date personale, precum cookies, identificatori de dispozitiv sau alte tehnologii similare pe dispozitivul dumneavoastră și procesa astfel de date pentru a personaliza conținutul și reclamele, dar și pentru a oferi caracteristici de social media și pentru a analiza traficul.

  • Stocarea și/sau accesarea informațiilor pe dispozitivul dumneavoastră

    Cookies, identificatori de dispozitiv sau alte informații pot fi stocate sau accesate pe dispozitiv în scopurile indicate mai sus.

  • Reclame și conținut personalizat, evaluarea reclamelor și a conținutului, informații despre audiențe și dezvoltarea produselor

    Reclamele și conținutul pot fi personalizate pe baza unui profil. Pot fi adăugate date suplimentare pentru a personaliza mai bine reclamele și conținutul. Performanța reclamelor și conținutului poate fi măsurată. Pot fi obținute informații despre utilizatorii care au văzut reclamele și conținutul. Aceste date pot fi utilizate pentru a dezvolta sau îmbunătăți experiența utilizatorilor, sistemele și software-ul.

Dând clic pe ‘Sunt de acord’, permiteți utilizarea cookie-urilor menționate, a identificatorilor de dispozitiv, balizelor web sau altor tehnologii similare. Setările pot fi modificate din browser-ul dispozitivului dumneavoastră.

În anumite scopuri, interesele legitime pot prima asupra consimțământului. Puteți citi mai multe informații în acest sens în Politica privind Confidențialitatea Datelor și Cookie.